Time,TemperatureF,DewpointF,PressureIn,WindDirection,WindDirectionDegrees,WindSpeedMPH,WindSpeedGustMPH,Humidity,HourlyPrecipIn,Conditions,Clouds,dailyrainin,SoftwareType,DateUTC
2013-04-17 00:00:00,61.5,51.6,29.48,North,0,2.0,11.0,70,0.00,,---,0.00,VWS V12.08,2013-04-17 04:00:00,
2013-04-17 00:30:00,61.6,51.7,29.48,North,0,3.0,11.0,70,0.00,,---,0.00,VWS V12.08,2013-04-17 04:30:00,
2013-04-17 01:00:00,61.8,51.9,29.47,North,0,3.0,19.0,70,0.00,,---,0.00,VWS V12.08,2013-04-17 05:00:00,
2013-04-17 01:30:00,61.8,52.3,29.46,North,0,3.0,13.0,71,0.00,,---,0.00,VWS V12.08,2013-04-17 05:30:00,
2013-04-17 02:00:00,62.3,52.8,29.47,North,0,1.0,13.0,71,0.00,,---,0.00,VWS V12.08,2013-04-17 06:00:00,
2013-04-17 02:30:00,62.0,52.9,29.47,North,0,1.0,12.0,72,0.00,,---,0.00,VWS V12.08,2013-04-17 06:30:00,
2013-04-17 03:00:00,62.0,53.3,29.46,North,0,1.0,7.0,73,0.00,,---,0.00,VWS V12.08,2013-04-17 07:00:00,
2013-04-17 03:30:00,62.4,53.3,29.46,North,0,0.0,10.0,72,0.00,,---,0.00,VWS V12.08,2013-04-17 07:30:00,
2013-04-17 04:00:00,62.1,53.7,29.46,North,0,1.0,15.0,74,0.00,,---,0.00,VWS V12.08,2013-04-17 08:00:00,
2013-04-17 04:30:00,62.6,54.2,29.46,North,0,1.0,9.0,74,0.00,,---,0.00,VWS V12.08,2013-04-17 08:30:00,
2013-04-17 05:00:00,62.4,54.4,29.46,North,0,1.0,7.0,75,0.00,,---,0.00,VWS V12.08,2013-04-17 09:00:00,
2013-04-17 05:30:00,62.0,54.7,29.46,North,0,1.0,10.0,77,0.00,,---,0.00,VWS V12.08,2013-04-17 09:30:00,
2013-04-17 06:00:00,59.9,53.4,29.47,North,0,3.0,16.0,79,0.00,,---,0.00,VWS V12.08,2013-04-17 10:00:00,
2013-04-17 06:30:00,58.1,53.6,29.48,North,0,3.0,13.0,85,0.01,,---,0.01,VWS V12.08,2013-04-17 10:30:00,
2013-04-17 07:00:00,56.3,51.5,29.51,North,0,3.0,13.0,84,0.01,,---,0.01,VWS V12.08,2013-04-17 11:00:00,
2013-04-17 07:30:00,55.4,47.3,29.54,North,0,4.0,14.0,74,0.01,,---,0.01,VWS V12.08,2013-04-17 11:30:00,
2013-04-17 08:00:00,56.0,47.1,29.55,North,0,1.0,10.0,72,0.00,,---,0.01,VWS V12.08,2013-04-17 12:00:00,
2013-04-17 08:30:00,55.4,45.0,29.56,North,0,4.0,14.0,68,0.00,,---,0.01,VWS V12.08,2013-04-17 12:30:00,
2013-04-17 09:00:00,56.0,45.2,29.56,North,0,2.0,11.0,67,0.00,,---,0.01,VWS V12.08,2013-04-17 13:00:00,
2013-04-17 09:30:00,56.3,45.1,29.57,North,0,2.0,13.0,66,0.00,,---,0.01,VWS V12.08,2013-04-17 13:30:00,
2013-04-17 10:00:00,56.9,44.5,29.57,North,0,2.0,12.0,63,0.00,,---,0.01,VWS V12.08,2013-04-17 14:00:00,
2013-04-17 10:30:00,58.4,43.7,29.57,North,360,0.0,2.0,58,0.00,,---,0.01,VWS V12.08,2013-04-17 14:30:00,
2013-04-17 10:35:00,59.5,43.3,29.57,North,9,0.0,5.0,55,0.00,,---,0.01,VWS V12.08,2013-04-17 14:35:00,
2013-04-17 10:40:00,60.5,43.8,29.57,North,360,1.0,5.0,54,0.00,,---,0.01,VWS V12.08,2013-04-17 14:40:00,
2013-04-17 10:45:00,61.0,43.3,29.57,North,360,1.0,5.0,52,0.00,,---,0.01,VWS V12.08,2013-04-17 14:45:00,
2013-04-17 10:50:00,61.6,43.8,29.57,North,360,3.0,5.0,52,0.00,,---,0.01,VWS V12.08,2013-04-17 14:50:00,
2013-04-17 10:55:00,62.1,42.7,29.57,North,360,9.0,9.0,49,0.00,,---,0.01,VWS V12.08,2013-04-17 14:55:00,
2013-04-17 11:00:00,61.3,42.5,29.57,WNW,286,0.0,5.0,50,0.00,,---,0.01,VWS V12.08,2013-04-17 15:00:00,
2013-04-17 11:05:00,61.8,42.5,29.57,North,360,5.0,5.0,49,0.00,,---,0.01,VWS V12.08,2013-04-17 15:05:00,
2013-04-17 11:10:00,62.0,41.6,29.57,North,9,0.0,6.0,47,0.00,,---,0.01,VWS V12.08,2013-04-17 15:10:00,
2013-04-17 11:15:00,62.3,42.4,29.56,North,360,2.0,10.0,48,0.00,,---,0.01,VWS V12.08,2013-04-17 15:15:00,
2013-04-17 11:20:00,62.3,40.7,29.56,North,360,10.0,11.0,45,0.00,,---,0.01,VWS V12.08,2013-04-17 15:20:00,
2013-04-17 11:25:00,60.9,41.6,29.56,North,360,0.0,13.0,49,0.00,,---,0.01,VWS V12.08,2013-04-17 15:25:00,
2013-04-17 11:30:00,61.5,41.7,29.55,North,355,0.0,1.0,48,0.00,,---,0.01,VWS V12.08,2013-04-17 15:30:00,
2013-04-17 11:35:00,62.3,41.8,29.55,North,360,0.0,9.0,47,0.00,,---,0.01,VWS V12.08,2013-04-17 15:35:00,
2013-04-17 11:40:00,63.1,41.4,29.55,North,360,0.0,9.0,45,0.00,,---,0.01,VWS V12.08,2013-04-17 15:40:00,
2013-04-17 11:45:00,63.4,41.1,29.55,North,360,2.0,9.0,44,0.00,,---,0.01,VWS V12.08,2013-04-17 15:45:00,
2013-04-17 11:50:00,63.1,40.9,29.55,NNE,14,1.0,9.0,44,0.00,,---,0.01,VWS V12.08,2013-04-17 15:50:00,
2013-04-17 11:55:00,64.0,41.1,29.55,North,360,2.0,9.0,43,0.00,,---,0.01,VWS V12.08,2013-04-17 15:55:00,
2013-04-17 12:00:00,63.9,40.4,29.55,North,360,2.0,3.0,42,0.00,,---,0.01,VWS V12.08,2013-04-17 16:00:00,
2013-04-17 12:05:00,63.9,40.4,29.55,North,360,2.0,7.0,42,0.00,,---,0.01,VWS V12.08,2013-04-17 16:05:00,
2013-04-17 12:10:00,64.5,40.3,29.55,North,360,0.0,7.0,41,0.00,,---,0.01,VWS V12.08,2013-04-17 16:10:00,
2013-04-17 12:15:00,65.2,39.6,29.55,North,360,0.0,7.0,39,0.00,,---,0.01,VWS V12.08,2013-04-17 16:15:00,
2013-04-17 12:20:00,65.0,40.1,29.55,North,360,2.0,7.0,40,0.00,,---,0.01,VWS V12.08,2013-04-17 16:20:00,
2013-04-17 12:25:00,65.3,39.7,29.55,North,360,0.0,9.0,39,0.00,,---,0.01,VWS V12.08,2013-04-17 16:25:00,
2013-04-17 12:30:00,66.0,39.7,29.55,North,360,3.0,3.0,38,0.00,,---,0.01,VWS V12.08,2013-04-17 16:30:00,
2013-04-17 12:35:00,66.6,39.5,29.55,North,360,3.0,3.0,37,0.00,,---,0.01,VWS V12.08,2013-04-17 16:35:00,
2013-04-17 12:40:00,65.8,39.5,29.55,North,360,1.0,9.0,38,0.00,,---,0.01,VWS V12.08,2013-04-17 16:40:00,
2013-04-17 12:45:00,66.0,39.7,29.55,North,360,0.0,9.0,38,0.00,,---,0.01,VWS V12.08,2013-04-17 16:45:00,
2013-04-17 12:50:00,67.1,39.3,29.55,North,360,0.0,9.0,36,0.00,,---,0.01,VWS V12.08,2013-04-17 16:50:00,
2013-04-17 12:55:00,67.8,38.4,29.55,North,360,0.0,9.0,34,0.00,,---,0.01,VWS V12.08,2013-04-17 16:55:00,
2013-04-17 13:00:00,67.9,38.5,29.54,North,360,0.0,2.0,34,0.00,,---,0.01,VWS V12.08,2013-04-17 17:00:00,
2013-04-17 13:05:00,67.4,38.1,29.54,North,351,0.0,9.0,34,0.00,,---,0.01,VWS V12.08,2013-04-17 17:05:00,
2013-04-17 13:10:00,67.6,38.3,29.54,North,360,0.0,9.0,34,0.00,,---,0.01,VWS V12.08,2013-04-17 17:10:00,
2013-04-17 13:15:00,67.1,37.8,29.54,North,355,4.0,9.0,34,0.00,,---,0.01,VWS V12.08,2013-04-17 17:15:00,
2013-04-17 13:20:00,66.1,37.7,29.54,North,360,2.0,9.0,35,0.00,,---,0.01,VWS V12.08,2013-04-17 17:20:00,
2013-04-17 13:25:00,66.1,38.4,29.54,North,360,0.0,9.0,36,0.00,,---,0.01,VWS V12.08,2013-04-17 17:25:00,
2013-04-17 13:30:00,67.1,37.8,29.53,North,360,3.0,3.0,34,0.00,,---,0.01,VWS V12.08,2013-04-17 17:30:00,
2013-04-17 13:35:00,67.8,38.4,29.53,North,360,0.0,5.0,34,0.00,,---,0.01,VWS V12.08,2013-04-17 17:35:00,
2013-04-17 13:40:00,67.1,37.1,29.53,North,360,4.0,7.0,33,0.00,,---,0.01,VWS V12.08,2013-04-17 17:40:00,
2013-04-17 13:45:00,67.1,37.8,29.54,North,360,0.0,10.0,34,0.00,,---,0.01,VWS V12.08,2013-04-17 17:45:00,
2013-04-17 13:50:00,67.3,36.5,29.54,North,360,9.0,10.0,32,0.00,,---,0.01,VWS V12.08,2013-04-17 17:50:00,
2013-04-17 13:55:00,66.6,36.6,29.54,North,360,3.0,10.0,33,0.00,,---,0.01,VWS V12.08,2013-04-17 17:55:00,
2013-04-17 14:00:00,66.1,36.2,29.54,NNE,27,6.0,11.0,33,0.00,,---,0.01,VWS V12.08,2013-04-17 18:00:00,
2013-04-17 14:05:00,66.4,36.5,29.54,North,360,0.0,11.0,33,0.00,,---,0.01,VWS V12.08,2013-04-17 18:05:00,
2013-04-17 14:10:00,66.9,36.9,29.54,North,360,9.0,11.0,33,0.00,,---,0.01,VWS V12.08,2013-04-17 18:10:00,
2013-04-17 14:15:00,67.9,37.0,29.54,North,360,4.0,11.0,32,0.00,,---,0.01,VWS V12.08,2013-04-17 18:15:00,
2013-04-17 14:20:00,66.6,36.6,29.54,North,360,3.0,11.0,33,0.00,,---,0.01,VWS V12.08,2013-04-17 18:20:00,
2013-04-17 14:25:00,67.6,36.7,29.54,North,360,4.0,11.0,32,0.00,,---,0.01,VWS V12.08,2013-04-17 18:25:00,
2013-04-17 14:30:00,68.9,36.2,29.54,North,360,3.0,3.0,30,0.00,,---,0.01,VWS V12.08,2013-04-17 18:30:00,
2013-04-17 14:35:00,69.6,36.0,29.54,North,360,2.0,4.0,29,0.00,,---,0.01,VWS V12.08,2013-04-17 18:35:00,
2013-04-17 14:40:00,69.9,36.2,29.54,North,360,5.0,7.0,29,0.00,,---,0.01,VWS V12.08,2013-04-17 18:40:00,
2013-04-17 14:45:00,69.3,35.7,29.55,North,360,1.0,7.0,29,0.00,,---,0.01,VWS V12.08,2013-04-17 18:45:00,
2013-04-17 14:50:00,68.1,35.5,29.55,North,360,3.0,10.0,30,0.00,,---,0.01,VWS V12.08,2013-04-17 18:50:00,
2013-04-17 14:55:00,68.3,35.7,29.55,North,360,0.0,10.0,30,0.00,,---,0.01,VWS V12.08,2013-04-17 18:55:00,
2013-04-17 15:00:00,69.3,33.9,29.54,WSW,240,0.0,3.0,27,0.00,,---,0.01,VWS V12.08,2013-04-17 19:00:00,
2013-04-17 15:05:00,69.9,35.3,29.54,North,360,0.0,3.0,28,0.00,,---,0.01,VWS V12.08,2013-04-17 19:05:00,
2013-04-17 15:10:00,70.3,35.7,29.54,North,360,0.0,3.0,28,0.00,,---,0.01,VWS V12.08,2013-04-17 19:10:00,
2013-04-17 15:15:00,69.8,35.3,29.54,NE,49,0.0,10.0,28,0.00,,---,0.01,VWS V12.08,2013-04-17 19:15:00,
2013-04-17 15:20:00,70.1,34.6,29.54,North,360,5.0,10.0,27,0.00,,---,0.01,VWS V12.08,2013-04-17 19:20:00,
2013-04-17 15:25:00,69.3,34.8,29.54,North,360,1.0,10.0,28,0.00,,---,0.01,VWS V12.08,2013-04-17 19:25:00,
2013-04-17 15:30:00,68.6,34.2,29.54,North,360,6.0,6.0,28,0.00,,---,0.01,VWS V12.08,2013-04-17 19:30:00,
2013-04-17 15:35:00,69.1,34.7,29.54,NE,36,0.0,6.0,28,0.00,,---,0.01,VWS V12.08,2013-04-17 19:35:00,
2013-04-17 15:40:00,69.1,34.7,29.54,NNE,17,0.0,8.0,28,0.00,,---,0.01,VWS V12.08,2013-04-17 19:40:00,
2013-04-17 15:45:00,69.4,34.9,29.54,North,360,2.0,10.0,28,0.00,,---,0.01,VWS V12.08,2013-04-17 19:45:00,
2013-04-17 15:50:00,70.1,34.6,29.54,North,360,4.0,10.0,27,0.00,,---,0.01,VWS V12.08,2013-04-17 19:50:00,
2013-04-17 15:55:00,70.1,34.6,29.54,North,360,0.0,10.0,27,0.00,,---,0.01,VWS V12.08,2013-04-17 19:55:00,
2013-04-17 16:00:00,70.8,34.2,29.54,North,360,0.0,1.0,26,0.00,,---,0.01,VWS V12.08,2013-04-17 20:00:00,
2013-04-17 16:05:00,71.1,33.5,29.54,North,360,0.0,4.0,25,0.00,,---,0.01,VWS V12.08,2013-04-17 20:05:00,
2013-04-17 16:10:00,71.3,34.7,29.54,West,271,0.0,4.0,26,0.00,,---,0.01,VWS V12.08,2013-04-17 20:10:00,
2013-04-17 16:15:00,71.6,34.0,29.54,NNE,26,1.0,4.0,25,0.00,,---,0.01,VWS V12.08,2013-04-17 20:15:00,
2013-04-17 16:20:00,71.5,33.9,29.54,North,360,3.0,4.0,25,0.00,,---,0.01,VWS V12.08,2013-04-17 20:20:00,
2013-04-17 16:25:00,71.1,33.5,29.54,North,360,0.0,4.0,25,0.00,,---,0.01,VWS V12.08,2013-04-17 20:25:00,
2013-04-17 16:30:00,71.5,32.8,29.54,North,5,0.0,4.0,24,0.00,,---,0.01,VWS V12.08,2013-04-17 20:30:00,
2013-04-17 16:35:00,71.6,34.0,29.54,North,360,0.0,7.0,25,0.00,,---,0.01,VWS V12.08,2013-04-17 20:35:00,
2013-04-17 16:40:00,70.8,33.3,29.54,North,5,6.0,7.0,25,0.00,,---,0.01,VWS V12.08,2013-04-17 20:40:00,
2013-04-17 16:45:00,69.8,33.4,29.54,North,360,1.0,7.0,26,0.00,,---,0.01,VWS V12.08,2013-04-17 20:45:00,
2013-04-17 16:50:00,69.8,33.4,29.54,North,360,5.0,7.0,26,0.00,,---,0.01,VWS V12.08,2013-04-17 20:50:00,
2013-04-17 16:55:00,70.3,33.8,29.54,North,5,2.0,7.0,26,0.00,,---,0.01,VWS V12.08,2013-04-17 20:55:00,
2013-04-17 17:00:00,70.6,33.1,29.53,North,360,0.0,0.0,25,0.00,,---,0.01,VWS V12.08,2013-04-17 21:00:00,
2013-04-17 17:05:00,70.6,32.1,29.53,North,360,0.0,2.0,24,0.00,,---,0.01,VWS V12.08,2013-04-17 21:05:00,
2013-04-17 17:10:00,70.9,32.3,29.53,NE,37,0.0,2.0,24,0.00,,---,0.01,VWS V12.08,2013-04-17 21:10:00,
2013-04-17 17:15:00,71.3,32.7,29.55,North,360,0.0,5.0,24,0.00,,---,0.01,VWS V12.08,2013-04-17 21:15:00,
2013-04-17 17:20:00,71.8,33.1,29.55,North,360,0.0,5.0,24,0.00,,---,0.01,VWS V12.08,2013-04-17 21:20:00,
2013-04-17 17:25:00,72.0,33.3,29.55,North,360,0.0,5.0,24,0.00,,---,0.01,VWS V12.08,2013-04-17 21:25:00,
2013-04-17 17:30:00,72.0,33.3,29.54,South,177,0.0,0.0,24,0.00,,---,0.01,VWS V12.08,2013-04-17 21:30:00,
2013-04-17 17:35:00,71.8,33.1,29.54,North,5,0.0,6.0,24,0.00,,---,0.01,VWS V12.08,2013-04-17 21:35:00,
2013-04-17 17:40:00,71.8,34.1,29.54,North,360,1.0,6.0,25,0.00,,---,0.01,VWS V12.08,2013-04-17 21:40:00,
2013-04-17 17:45:00,71.8,33.1,29.55,North,360,0.0,6.0,24,0.00,,---,0.01,VWS V12.08,2013-04-17 21:45:00,
2013-04-17 17:50:00,71.6,32.9,29.55,North,360,0.0,6.0,24,0.00,,---,0.01,VWS V12.08,2013-04-17 21:50:00,
2013-04-17 17:55:00,71.6,32.9,29.55,SE,140,0.0,6.0,24,0.00,,---,0.01,VWS V12.08,2013-04-17 21:55:00,
2013-04-17 18:00:00,71.6,32.9,29.56,North,360,0.0,0.0,24,0.00,,---,0.01,VWS V12.08,2013-04-17 22:00:00,
2013-04-17 18:05:00,71.1,32.5,29.56,SE,140,0.0,2.0,24,0.00,,---,0.01,VWS V12.08,2013-04-17 22:05:00,
2013-04-17 18:10:00,70.4,31.9,29.56,SE,145,3.0,4.0,24,0.00,,---,0.01,VWS V12.08,2013-04-17 22:10:00,
2013-04-17 18:15:00,69.8,32.4,29.56,North,360,0.0,4.0,25,0.00,,---,0.01,VWS V12.08,2013-04-17 22:15:00,
2013-04-17 18:20:00,70.3,32.8,29.56,North,360,0.0,4.0,25,0.00,,---,0.01,VWS V12.08,2013-04-17 22:20:00,
2013-04-17 18:25:00,70.8,33.3,29.56,North,360,0.0,4.0,25,0.00,,---,0.01,VWS V12.08,2013-04-17 22:25:00,
2013-04-17 18:30:00,70.8,32.3,29.56,North,360,3.0,3.0,24,0.00,,---,0.01,VWS V12.08,2013-04-17 22:30:00,
2013-04-17 18:35:00,70.3,31.8,29.56,North,360,0.0,3.0,24,0.00,,---,0.01,VWS V12.08,2013-04-17 22:35:00,
2013-04-17 18:40:00,69.9,32.5,29.56,SSW,202,0.0,3.0,25,0.00,,---,0.01,VWS V12.08,2013-04-17 22:40:00,
2013-04-17 18:45:00,69.9,32.5,29.57,SSW,202,0.0,3.0,25,0.00,,---,0.01,VWS V12.08,2013-04-17 22:45:00,
2013-04-17 18:50:00,69.8,32.4,29.57,SSW,202,0.0,3.0,25,0.00,,---,0.01,VWS V12.08,2013-04-17 22:50:00,
2013-04-17 18:55:00,69.4,33.1,29.57,SSW,202,0.0,3.0,26,0.00,,---,0.01,VWS V12.08,2013-04-17 22:55:00,
2013-04-17 19:00:00,69.1,31.8,29.57,North,360,1.0,5.0,25,0.00,,---,0.01,VWS V12.08,2013-04-17 23:00:00,
2013-04-17 19:05:00,69.1,31.8,29.57,SSW,210,0.0,5.0,25,0.00,,---,0.01,VWS V12.08,2013-04-17 23:05:00,
2013-04-17 19:10:00,68.9,31.7,29.57,North,360,0.0,5.0,25,0.00,,---,0.01,VWS V12.08,2013-04-17 23:10:00,
2013-04-17 19:15:00,68.6,31.4,29.57,North,360,0.0,5.0,25,0.00,,---,0.01,VWS V12.08,2013-04-17 23:15:00,
2013-04-17 19:20:00,68.3,33.1,29.57,North,360,3.0,6.0,27,0.00,,---,0.01,VWS V12.08,2013-04-17 23:20:00,
2013-04-17 19:25:00,67.8,31.7,29.57,North,360,0.0,6.0,26,0.00,,---,0.01,VWS V12.08,2013-04-17 23:25:00,
2013-04-17 19:30:00,67.4,32.3,29.57,North,360,0.0,0.0,27,0.00,,---,0.01,VWS V12.08,2013-04-17 23:30:00,
2013-04-17 19:35:00,67.4,32.3,29.57,North,360,0.0,0.0,27,0.00,,---,0.01,VWS V12.08,2013-04-17 23:35:00,
2013-04-17 19:40:00,67.3,34.8,29.57,North,360,0.0,2.0,30,0.00,,---,0.01,VWS V12.08,2013-04-17 23:40:00,
2013-04-17 19:45:00,67.1,35.5,29.57,SW,234,0.0,2.0,31,0.00,,---,0.01,VWS V12.08,2013-04-17 23:45:00,
2013-04-17 19:50:00,66.4,37.2,29.57,North,360,0.0,3.0,34,0.00,,---,0.01,VWS V12.08,2013-04-17 23:50:00,
2013-04-17 19:55:00,65.8,37.4,29.57,North,360,0.0,3.0,35,0.00,,---,0.01,VWS V12.08,2013-04-17 23:55:00,
2013-04-17 20:00:00,65.5,37.9,29.58,North,360,2.0,4.0,36,0.00,,---,0.01,VWS V12.08,2013-04-18 00:00:00,
2013-04-17 20:05:00,65.2,37.6,29.58,North,360,0.0,4.0,36,0.00,,---,0.01,VWS V12.08,2013-04-18 00:05:00,
2013-04-17 20:10:00,65.0,37.4,29.58,North,360,0.0,4.0,36,0.00,,---,0.01,VWS V12.08,2013-04-18 00:10:00,
2013-04-17 20:15:00,64.8,36.5,29.58,North,360,1.0,4.0,35,0.00,,---,0.01,VWS V12.08,2013-04-18 00:15:00,
2013-04-17 20:20:00,64.5,36.3,29.58,North,360,0.0,4.0,35,0.00,,---,0.01,VWS V12.08,2013-04-18 00:20:00,
2013-04-17 20:25:00,64.3,36.8,29.58,North,360,0.0,4.0,36,0.00,,---,0.01,VWS V12.08,2013-04-18 00:25:00,
2013-04-17 20:30:00,63.9,37.8,29.59,North,360,0.0,3.0,38,0.00,,---,0.01,VWS V12.08,2013-04-18 00:30:00,
2013-04-17 20:35:00,63.4,38.7,29.59,North,360,1.0,3.0,40,0.00,,---,0.01,VWS V12.08,2013-04-18 00:35:00,
2013-04-17 20:40:00,63.1,39.0,29.59,North,360,0.0,4.0,41,0.00,,---,0.01,VWS V12.08,2013-04-18 00:40:00,
2013-04-17 20:45:00,62.9,38.9,29.60,North,360,0.0,4.0,41,0.00,,---,0.01,VWS V12.08,2013-04-18 00:45:00,
2013-04-17 20:50:00,62.9,38.9,29.60,SSE,162,1.0,4.0,41,0.00,,---,0.01,VWS V12.08,2013-04-18 00:50:00,
2013-04-17 20:55:00,62.9,38.9,29.60,North,360,1.0,4.0,41,0.00,,---,0.01,VWS V12.08,2013-04-18 00:55:00,
2013-04-17 21:00:00,62.7,39.3,29.60,North,360,0.0,0.0,42,0.00,,---,0.01,VWS V12.08,2013-04-18 01:00:00,
2013-04-17 21:05:00,62.1,40.0,29.60,North,360,3.0,4.0,44,0.00,,---,0.01,VWS V12.08,2013-04-18 01:05:00,
2013-04-17 21:10:00,61.3,40.4,29.60,North,360,2.0,4.0,46,0.00,,---,0.01,VWS V12.08,2013-04-18 01:10:00,
2013-04-17 21:15:00,60.9,40.0,29.61,North,360,4.0,4.0,46,0.00,,---,0.01,VWS V12.08,2013-04-18 01:15:00,
2013-04-17 21:20:00,60.7,39.3,29.61,North,360,0.0,4.0,45,0.00,,---,0.01,VWS V12.08,2013-04-18 01:20:00,
2013-04-17 21:25:00,60.5,39.6,29.61,North,360,0.0,4.0,46,0.00,,---,0.01,VWS V12.08,2013-04-18 01:25:00,
2013-04-17 21:30:00,60.5,39.1,29.61,North,360,0.0,2.0,45,0.00,,---,0.01,VWS V12.08,2013-04-18 01:30:00,
2013-04-17 21:35:00,60.4,39.0,29.61,South,189,1.0,3.0,45,0.00,,---,0.01,VWS V12.08,2013-04-18 01:35:00,
2013-04-17 21:40:00,60.1,39.3,29.61,North,360,0.0,3.0,46,0.00,,---,0.01,VWS V12.08,2013-04-18 01:40:00,
2013-04-17 21:45:00,59.9,38.5,29.62,North,360,3.0,4.0,45,0.00,,---,0.01,VWS V12.08,2013-04-18 01:45:00,
2013-04-17 21:50:00,60.1,38.7,29.62,North,360,0.0,4.0,45,0.00,,---,0.01,VWS V12.08,2013-04-18 01:50:00,
2013-04-17 21:55:00,60.4,38.4,29.62,North,360,2.0,4.0,44,0.00,,---,0.01,VWS V12.08,2013-04-18 01:55:00,
2013-04-17 22:00:00,60.4,37.8,29.62,North,360,0.0,1.0,43,0.00,,---,0.01,VWS V12.08,2013-04-18 02:00:00,
2013-04-17 22:05:00,60.4,36.6,29.62,North,360,0.0,3.0,41,0.00,,---,0.01,VWS V12.08,2013-04-18 02:05:00,
2013-04-17 22:10:00,60.2,36.4,29.62,North,360,0.0,3.0,41,0.00,,---,0.01,VWS V12.08,2013-04-18 02:10:00,
2013-04-17 22:15:00,60.2,35.8,29.62,North,360,0.0,3.0,40,0.00,,---,0.01,VWS V12.08,2013-04-18 02:15:00,
2013-04-17 22:20:00,60.4,36.0,29.62,North,360,0.0,3.0,40,0.00,,---,0.01,VWS V12.08,2013-04-18 02:20:00,
2013-04-17 22:25:00,60.4,36.0,29.62,North,360,0.0,4.0,40,0.00,,---,0.01,VWS V12.08,2013-04-18 02:25:00,
2013-04-17 22:30:00,60.2,35.8,29.62,North,360,1.0,2.0,40,0.00,,---,0.01,VWS V12.08,2013-04-18 02:30:00,
2013-04-17 22:35:00,60.1,35.7,29.62,North,360,0.0,3.0,40,0.00,,---,0.01,VWS V12.08,2013-04-18 02:35:00,
2013-04-17 22:40:00,60.2,35.8,29.62,North,360,0.0,3.0,40,0.00,,---,0.01,VWS V12.08,2013-04-18 02:40:00,
2013-04-17 22:45:00,60.1,35.7,29.61,SSE,153,0.0,3.0,40,0.00,,---,0.01,VWS V12.08,2013-04-18 02:45:00,
2013-04-17 22:50:00,59.9,35.5,29.61,North,360,0.0,3.0,40,0.00,,---,0.01,VWS V12.08,2013-04-18 02:50:00,
2013-04-17 22:55:00,59.8,34.2,29.61,North,360,0.0,4.0,38,0.00,,---,0.01,VWS V12.08,2013-04-18 02:55:00,
2013-04-17 23:00:00,59.8,35.5,29.62,North,360,0.0,0.0,40,0.00,,---,0.01,VWS V12.08,2013-04-18 03:00:00,
2013-04-17 23:05:00,59.9,34.9,29.62,SSE,157,0.0,2.0,39,0.00,,---,0.01,VWS V12.08,2013-04-18 03:05:00,
2013-04-17 23:10:00,59.9,34.2,29.62,North,360,0.0,4.0,38,0.00,,---,0.01,VWS V12.08,2013-04-18 03:10:00,
2013-04-17 23:15:00,60.1,35.1,29.61,North,360,0.0,4.0,39,0.00,,---,0.01,VWS V12.08,2013-04-18 03:15:00,
2013-04-17 23:20:00,60.1,34.4,29.61,SSE,160,0.0,4.0,38,0.00,,---,0.01,VWS V12.08,2013-04-18 03:20:00,
2013-04-17 23:25:00,59.9,34.9,29.61,SSE,160,0.0,4.0,39,0.00,,---,0.01,VWS V12.08,2013-04-18 03:25:00,
2013-04-17 23:30:00,59.9,35.5,29.62,SSE,161,0.0,0.0,40,0.00,,---,0.01,VWS V12.08,2013-04-18 03:30:00,
2013-04-17 23:35:00,59.9,34.9,29.62,North,360,0.0,1.0,39,0.00,,---,0.01,VWS V12.08,2013-04-18 03:35:00,
2013-04-17 23:40:00,59.9,34.9,29.62,North,360,0.0,2.0,39,0.00,,---,0.01,VWS V12.08,2013-04-18 03:40:00,
2013-04-17 23:45:00,60.1,35.1,29.63,SSE,162,0.0,2.0,39,0.00,,---,0.01,VWS V12.08,2013-04-18 03:45:00,
2013-04-17 23:50:00,60.2,35.2,29.63,North,360,0.0,2.0,39,0.00,,---,0.01,VWS V12.08,2013-04-18 03:50:00,
2013-04-17 23:55:00,60.4,36.0,29.63,SSE,163,0.0,2.0,40,0.00,,---,0.01,VWS V12.08,2013-04-18 03:55:00,